When you browse on this site, cookies collect data to enhance your experience and personalize the content and advertising you see.
Visit our Privacy Policy to learn more. By continuing to use the site, you agree to this use of cookies and data.
  • In Hungary
  • List of Countries
  • For 7 days
  • Water Temperature
  • Satellite Maps
  • Weather Map
  • News
  • Weather Widgets
  • user-avatar
    Login

    Hourly Weather Djùpivogur

    Today, 23 February, Saturday

    Time Temperature Precipitation Wind Pressure Humidity
    00:00 +3°C° 0.2 mm 10 mps 733 mmHg 94%
    01:00 +3°C° 0.2 mm 9 mps 733 mmHg 96%
    02:00 +4°C° 1.8 mm 7 mps 731 mmHg 97%
    03:00 +5°C° 1.8 mm 5 mps 730 mmHg 97%
    04:00 +5°C° 0 mm 3 mps 730 mmHg 98%
    05:00 +4°C° 0.1 mm 4 mps 730 mmHg 97%
    06:00 +4°C° 0.1 mm 4 mps 730 mmHg 96%
    07:00 +2°C° 0.1 mm 5 mps 730 mmHg 95%
    08:00 +3°C° 0 mm 7 mps 730 mmHg 90%
    09:00 +2°C° 0 mm 8 mps 731 mmHg 86%
    10:00 +2°C° 0 mm 10 mps 731 mmHg 81%
    11:00 +2°C° 0 mm 10 mps 732 mmHg 80%
    12:00 +2°C° 0 mm 11 mps 732 mmHg 79%
    13:00 +2°C° 0 mm 11 mps 733 mmHg 77%
    14:00 +1°C° 0.2 mm 13 mps 734 mmHg 78%
    15:00 0°C° 0.2 mm 14 mps 736 mmHg 79%
    16:00 0°C° 0.2 mm 16 mps 738 mmHg 80%
    17:00 0°C° 0.1 mm 16 mps 741 mmHg 79%
    18:00 0°C° 0.1 mm 16 mps 744 mmHg 78%
    19:00 0°C° 0.1 mm 16 mps 747 mmHg 77%
    20:00 -1°C° 0 mm 14 mps 749 mmHg 74%
    21:00 -1°C° 0 mm 13 mps 751 mmHg 71%
    22:00 -2°C° 0 mm 11 mps 752 mmHg 68%
    23:00 -2°C° 0 mm 10 mps 754 mmHg 67%

    Tomorrow, 24 February, Sunday

    Time Temperature Precipitation Wind Pressure Humidity
    00:00 -1°C° 0 mm 8 mps 755 mmHg 66%
    01:00 -1°C° 0 mm 6 mps 756 mmHg 64%
    02:00 -1°C° 0 mm 6 mps 756 mmHg 64%
    03:00 0°C° 0 mm 5 mps 756 mmHg 64%
    04:00 0°C° 0 mm 5 mps 756 mmHg 64%
    05:00 -1°C° 0 mm 7 mps 756 mmHg 65%
    06:00 -1°C° 0 mm 9 mps 755 mmHg 66%
    07:00 -2°C° 0 mm 11 mps 755 mmHg 68%
    08:00 -2°C° 0 mm 12 mps 753 mmHg 65%
    09:00 -1°C° 0 mm 14 mps 752 mmHg 63%
    10:00 -2°C° 0 mm 16 mps 751 mmHg 60%
    11:00 0°C° 0.3 mm 17 mps 749 mmHg 66%
    12:00 +1°C° 0.3 mm 17 mps 748 mmHg 71%
    13:00 +2°C° 0.3 mm 18 mps 746 mmHg 77%
    14:00 +2°C° 0.3 mm 16 mps 746 mmHg 83%
    15:00 +4°C° 0.3 mm 13 mps 746 mmHg 89%
    16:00 +4°C° 0.3 mm 11 mps 745 mmHg 95%
    17:00 +3°C° 0 mm 10 mps 746 mmHg 90%
    18:00 +3°C° 0 mm 9 mps 747 mmHg 85%
    19:00 +2°C° 0 mm 9 mps 748 mmHg 80%
    20:00 +2°C° 0.2 mm 8 mps 749 mmHg 80%
    21:00 +3°C° 0.2 mm 7 mps 750 mmHg 81%
    22:00 +3°C° 0.2 mm 7 mps 751 mmHg 82%
    23:00 +2°C° 0.3 mm 8 mps 752 mmHg 80%

    Day after tomorrow, 25 February, Monday

    Time Temperature Precipitation Wind Pressure Humidity
    00:00 +2°C° 0.3 mm 9 mps 753 mmHg 78%
    01:00 +2°C° 0.3 mm 10 mps 754 mmHg 76%
    02:00 +2°C° 0 mm 9 mps 754 mmHg 76%
    03:00 +2°C° 0 mm 9 mps 755 mmHg 77%
    04:00 +1°C° 0 mm 8 mps 755 mmHg 77%
    05:00 +1°C° 0 mm 9 mps 755 mmHg 77%
    06:00 +2°C° 0 mm 10 mps 756 mmHg 77%
    07:00 +2°C° 0 mm 12 mps 756 mmHg 77%
    08:00 +2°C° 0 mm 12 mps 756 mmHg 76%
    09:00 +3°C° 0 mm 13 mps 755 mmHg 75%
    10:00 +3°C° 0 mm 14 mps 755 mmHg 73%
    11:00 +3°C° 0 mm 14 mps 754 mmHg 71%
    12:00 +2°C° 0 mm 15 mps 754 mmHg 68%
    13:00 +2°C° 0 mm 15 mps 753 mmHg 65%
    14:00 +2°C° 0.1 mm 15 mps 751 mmHg 65%
    15:00 +2°C° 0.1 mm 15 mps 750 mmHg 65%
    16:00 +2°C° 0.1 mm 15 mps 748 mmHg 65%
    17:00 +2°C° 1 mm 16 mps 745 mmHg 68%
    18:00 +2°C° 1 mm 17 mps 741 mmHg 70%
    19:00 +3°C° 1 mm 18 mps 738 mmHg 72%
    20:00 +2°C° 0.5 mm 19 mps 737 mmHg 72%
    21:00 +2°C° 0.5 mm 19 mps 735 mmHg 72%
    22:00 +1°C° 0.5 mm 20 mps 734 mmHg 72%
    23:00 +1°C° 0.5 mm 20 mps 734 mmHg 71%

    26 February, Tuesday

    Time Temperature Precipitation Wind Pressure Humidity
    00:00 +1°C° 0.5 mm 19 mps 733 mmHg 70%
    01:00 +1°C° 0.5 mm 19 mps 733 mmHg 69%
    02:00 +1°C° 0.3 mm 19 mps 732 mmHg 70%
    03:00 +1°C° 0.3 mm 19 mps 731 mmHg 70%
    04:00 +1°C° 0.3 mm 19 mps 730 mmHg 71%
    05:00 +1°C° 0.8 mm 20 mps 729 mmHg 73%
    06:00 0°C° 0.8 mm 21 mps 729 mmHg 74%
    07:00 0°C° 0.8 mm 22 mps 728 mmHg 76%
    08:00 0°C° 0.6 mm 22 mps 729 mmHg 77%
    09:00 +2°C° 0.6 mm 21 mps 730 mmHg 79%
    10:00 +2°C° 0.6 mm 20 mps 731 mmHg 81%
    11:00 +1°C° 0.1 mm 20 mps 733 mmHg 78%
    12:00 +1°C° 0.1 mm 19 mps 735 mmHg 75%
    13:00 +1°C° 0.1 mm 18 mps 737 mmHg 72%
    14:00 +1°C° 0.1 mm 17 mps 738 mmHg 73%
    15:00 +1°C° 0.1 mm 16 mps 740 mmHg 73%
    16:00 +1°C° 0.1 mm 15 mps 742 mmHg 73%
    17:00 +1°C° 0.2 mm 13 mps 743 mmHg 76%
    18:00 +1°C° 0.2 mm 11 mps 745 mmHg 78%
    19:00 +1°C° 0.2 mm 10 mps 746 mmHg 81%
    20:00 +1°C° 0.1 mm 10 mps 747 mmHg 80%
    21:00 +1°C° 0.1 mm 10 mps 748 mmHg 80%
    22:00 +1°C° 0.1 mm 11 mps 749 mmHg 80%
    23:00 +1°C° 0 mm 9 mps 750 mmHg 80%

    27 February, Wednesday

    Time Temperature Precipitation Wind Pressure Humidity
    00:00 +1°C° 0 mm 8 mps 750 mmHg 80%
    01:00 +2°C° 0 mm 7 mps 751 mmHg 79%
    02:00 +1°C° 0 mm 6 mps 751 mmHg 81%
    03:00 +1°C° 0 mm 5 mps 752 mmHg 82%
    04:00 +1°C° 0 mm 4 mps 752 mmHg 84%
    05:00 +2°C° 0 mm 3 mps 752 mmHg 84%
    06:00 +1°C° 0 mm 3 mps 753 mmHg 85%
    07:00 +2°C° 0 mm 2 mps 753 mmHg 85%
    08:00 +3°C° 0 mm 2 mps 753 mmHg 84%
    09:00 +3°C° 0 mm 3 mps 753 mmHg 83%
    10:00 +3°C° 0 mm 3 mps 753 mmHg 82%
    11:00 +3°C° 0 mm 4 mps 753 mmHg 82%
    12:00 +4°C° 0 mm 4 mps 753 mmHg 82%
    13:00 +4°C° 0 mm 4 mps 753 mmHg 82%
    14:00 +3°C° 0 mm 5 mps 752 mmHg 83%
    15:00 +2°C° 0 mm 5 mps 752 mmHg 85%
    16:00 +2°C° 0 mm 6 mps 752 mmHg 86%
    17:00 +2°C° 0.1 mm 7 mps 751 mmHg 85%
    18:00 +1°C° 0.1 mm 8 mps 751 mmHg 84%
    19:00 +1°C° 0.1 mm 8 mps 751 mmHg 84%
    20:00 +1°C° 0 mm 9 mps 751 mmHg 82%
    21:00 +1°C° 0 mm 10 mps 750 mmHg 81%
    22:00 +1°C° 0 mm 11 mps 750 mmHg 79%
    23:00 +1°C° 0 mm 11 mps 750 mmHg 80%

    28 February, Thursday

    Time Temperature Precipitation Wind Pressure Humidity
    00:00 -1°C° 0 mm 11 mps 749 mmHg 81%
    01:00 -1°C° 0 mm 11 mps 749 mmHg 82%
    02:00 +1°C° 0.1 mm 11 mps 749 mmHg 83%
    03:00 +1°C° 0.1 mm 11 mps 748 mmHg 84%
    04:00 +1°C° 0.1 mm 11 mps 748 mmHg 85%
    05:00 +1°C° 0.3 mm 10 mps 748 mmHg 88%
    06:00 +2°C° 0.3 mm 9 mps 749 mmHg 91%
    07:00 +2°C° 0.3 mm 8 mps 749 mmHg 94%
    08:00 +3°C° 0 mm 7 mps 749 mmHg 91%
    09:00 +3°C° 0 mm 6 mps 749 mmHg 88%
    10:00 +4°C° 0 mm 6 mps 750 mmHg 84%
    11:00 +4°C° 0 mm 8 mps 749 mmHg 84%
    12:00 +3°C° 0 mm 10 mps 749 mmHg 83%
    13:00 +3°C° 0 mm 12 mps 749 mmHg 82%
    14:00 +3°C° 0.4 mm 12 mps 749 mmHg 85%
    15:00 +3°C° 0.4 mm 12 mps 748 mmHg 88%
    16:00 +3°C° 0.4 mm 12 mps 748 mmHg 91%
    17:00 +2°C° 0.1 mm 11 mps 748 mmHg 85%
    18:00 +2°C° 0.1 mm 10 mps 749 mmHg 79%
    19:00 +1°C° 0.1 mm 9 mps 749 mmHg 74%
    20:00 +1°C° 0 mm 8 mps 750 mmHg 73%
    21:00 +1°C° 0 mm 8 mps 750 mmHg 72%
    22:00 +2°C° 0 mm 7 mps 750 mmHg 72%
    23:00 +2°C° 0 mm 6 mps 750 mmHg 69%
    Show more